| time (UTC) | temp F | wind direction | speed knots | gust knots | rain 1hr in | rain 24hr in | rain mn in | humidity % | barometer mb |
| 20260505180704 | 57 | 112 | 2.6 | 2.6 | 0.00 | 0.00 | 0.00 | 47 | 1023.0 |
| 20260505180204 | 57 | 112 | 2.6 | 2.6 | 0.00 | 0.00 | 0.00 | 49 | 1023.0 |
| 20260505175704 | 57 | 112 | 2.6 | 2.6 | 0.00 | 0.00 | 0.00 | 49 | 1023.0 |
| 20260505175204 | 57 | 112 | 2.6 | 2.6 | 0.00 | 0.00 | 0.00 | 49 | 1023.0 |
| 20260505174703 | 57 | 112 | 2.6 | 2.6 | 0.00 | 0.00 | 0.00 | 49 | 1023.0 |
| 20260505174205 | 57 | 112 | 2.6 | 2.6 | 0.00 | 0.00 | 0.00 | 48 | 1023.0 |
| 20260505173704 | 56 | 112 | 2.6 | 2.6 | 0.00 | 0.00 | 0.00 | 46 | 1023.0 |
| 20260505173204 | 56 | 112 | 2.6 | 2.6 | 0.00 | 0.00 | 0.00 | 46 | 1023.0 |
| 20260505172704 | 56 | 112 | 2.6 | 2.6 | 0.00 | 0.00 | 0.00 | 45 | 1023.0 |
| 20260505172204 | 57 | 112 | 2.6 | 2.6 | 0.00 | 0.00 | 0.00 | 45 | 1023.0 |
| 20260505171704 | 57 | 112 | 2.6 | 2.6 | 0.00 | 0.00 | 0.00 | 44 | 1023.0 |
| 20260505171203 | 57 | 112 | 2.6 | 2.6 | 0.00 | 0.00 | 0.00 | 44 | 1023.0 |
| 20260505170705 | 57 | 112 | 2.6 | 2.6 | 0.00 | 0.00 | 0.00 | 44 | 1023.0 |
| 20260505170204 | 57 | 112 | 2.6 | 2.6 | 0.00 | 0.00 | 0.00 | 44 | 1023.0 |
| 20260505165704 | 57 | 112 | 2.6 | 2.6 | 0.00 | 0.00 | 0.00 | 45 | 1023.0 |
| 20260505165204 | 57 | 112 | 2.6 | 2.6 | 0.00 | 0.00 | 0.00 | 45 | 1023.0 |
| 20260505164204 | 57 | 112 | 2.6 | 2.6 | 0.00 | 0.00 | 0.00 | 44 | 1023.0 |
| 20260505163204 | 57 | 112 | 2.6 | 2.6 | 0.00 | 0.00 | 0.00 | 43 | 1023.0 |
| 20260505162704 | 57 | 112 | 2.6 | 2.6 | 0.00 | 0.00 | 0.00 | 43 | 1023.0 |
| 20260505161704 | 57 | 112 | 2.6 | 2.6 | 0.00 | 0.00 | 0.00 | 42 | 1023.0 |
| 20260505161204 | 57 | 112 | 2.6 | 2.6 | 0.00 | 0.00 | 0.00 | 41 | 1023.8 |
| 20260505160704 | 58 | 112 | 2.6 | 2.6 | 0.00 | 0.00 | 0.00 | 41 | 1024.0 |
| 20260505160204 | 58 | 112 | 2.6 | 2.6 | 0.00 | 0.00 | 0.00 | 39 | 1024.0 |
| 20260505153204 | 58 | 112 | 2.6 | 2.6 | 0.00 | 0.00 | 0.00 | 36 | 1025.0 |
| 20260505152703 | 58 | 112 | 2.6 | 2.6 | 0.00 | 0.00 | 0.00 | 35 | 1025.0 |
| 20260505152205 | 58 | 112 | 2.6 | 2.6 | 0.00 | 0.00 | 0.00 | 35 | 1025.0 |
| 20260505151704 | 57 | 112 | 2.6 | 2.6 | 0.00 | 0.00 | 0.00 | 35 | 1025.0 |
| 20260505151204 | 58 | 112 | 2.6 | 2.6 | 0.00 | 0.00 | 0.00 | 35 | 1025.0 |
| 20260505150704 | 58 | 66 | 1.7 | 2.6 | 0.00 | 0.00 | 0.00 | 35 | 1025.0 |
| 20260505150203 | 58 | 61 | 2.6 | 2.6 | 0.00 | 0.00 | 0.00 | 35 | 1025.0 |
| 20260505140204 | 59 | 68 | 2.6 | 5.2 | 0.00 | 0.00 | 0.00 | 35 | 1025.0 |
| 20260505124704 | 61 | 112 | 0.0 | 0.0 | 0.00 | 0.00 | 0.00 | 24 | 1023.0 |
| 20260505124204 | 62 | 135 | 0.0 | 0.0 | 0.00 | 0.00 | 0.00 | 24 | 1023.0 |
| 20260505123704 | 62 | 135 | 0.9 | 0.9 | 0.00 | 0.00 | 0.00 | 24 | 1023.0 |
| 20260505123204 | 62 | 270 | 0.0 | 0.0 | 0.00 | 0.00 | 0.00 | 24 | 1023.0 |
| 20260505122705 | 62 | 202 | 0.0 | 5.2 | 0.00 | 0.00 | 0.00 | 24 | 1023.0 |
| 20260505122204 | 63 | 238 | 0.0 | 2.6 | 0.00 | 0.00 | 0.00 | 23 | 1023.0 |
| 20260505120704 | 63 | 270 | 0.9 | 1.7 | 0.00 | 0.00 | 0.00 | 23 | 1023.0 |
| 20260505120204 | 63 | 266 | 2.6 | 5.2 | 0.00 | 0.00 | 0.00 | 23 | 1023.0 |
| 20260505115704 | 63 | 248 | 1.7 | 4.3 | 0.00 | 0.00 | 0.00 | 23 | 1023.0 |
| 20260505115205 | 63 | 246 | 0.9 | 1.7 | 0.00 | 0.00 | 0.00 | 23 | 1023.0 |
| 20260505114704 | 63 | 244 | 1.7 | 5.2 | 0.00 | 0.00 | 0.00 | 23 | 1023.0 |
| 20260505114204 | 63 | 255 | 2.6 | 4.3 | 0.00 | 0.00 | 0.00 | 23 | 1023.0 |
| 20260505113704 | 63 | 248 | 0.0 | 1.7 | 0.00 | 0.00 | 0.00 | 23 | 1023.0 |
| 20260505113204 | 63 | 292 | 0.9 | 2.6 | 0.00 | 0.00 | 0.00 | 23 | 1023.0 |
| 20260505112704 | 63 | 270 | 4.3 | 7.0 | 0.00 | 0.00 | 0.00 | 21 | 1023.0 |
| 20260505112204 | 63 | 270 | 1.7 | 7.0 | 0.00 | 0.00 | 0.00 | 23 | 1023.0 |
| 20260505111705 | 63 | 275 | 3.5 | 5.2 | 0.00 | 0.00 | 0.00 | 23 | 1023.0 |
| 20260505111204 | 64 | 291 | 3.5 | 5.2 | 0.00 | 0.00 | 0.00 | 21 | 1022.3 |
| 20260505110704 | 64 | 285 | 2.6 | 5.2 | 0.00 | 0.00 | 0.00 | 21 | 1022.0 |
| 20260505110203 | 64 | 90 | 2.6 | 4.3 | 0.00 | 0.00 | 0.00 | 21 | 1022.0 |
| 20260505101704 | 65 | 265 | 3.5 | 7.0 | 0.00 | 0.00 | 0.00 | 18 | 1022.0 |
| 20260505101204 | 65 | 257 | 3.5 | 7.0 | 0.00 | 0.00 | 0.00 | 18 | 1021.3 |
| 20260505100705 | 65 | 303 | 2.6 | 5.2 | 0.00 | 0.00 | 0.00 | 19 | 1021.0 |
| 20260505095204 | 65 | 259 | 2.6 | 5.2 | 0.00 | 0.00 | 0.00 | 23 | 1021.0 |
| 20260505094704 | 65 | 272 | 2.6 | 6.1 | 0.00 | 0.00 | 0.00 | 23 | 1021.0 |
| 20260505094204 | 66 | 275 | 1.7 | 5.2 | 0.00 | 0.00 | 0.00 | 23 | 1021.0 |
| 20260505093704 | 66 | 251 | 4.3 | 7.0 | 0.00 | 0.00 | 0.00 | 23 | 1021.0 |
| 20260505092704 | 66 | 254 | 2.6 | 6.1 | 0.00 | 0.00 | 0.00 | 23 | 1021.0 |
| 20260505091704 | 67 | 263 | 0.9 | 4.3 | 0.00 | 0.00 | 0.00 | 20 | 1021.0 |
| 20260505090704 | 68 | 258 | 4.3 | 6.1 | 0.00 | 0.00 | 0.00 | 17 | 1020.0 |
| 20260505090204 | 68 | 293 | 3.5 | 7.8 | 0.00 | 0.00 | 0.00 | 17 | 1020.0 |
| 20260505085703 | 69 | 245 | 3.5 | 7.0 | 0.00 | 0.00 | 0.00 | 17 | 1020.0 |
| 20260505084704 | 69 | 257 | 4.3 | 6.1 | 0.00 | 0.00 | 0.00 | 17 | 1020.0 |
| 20260505084204 | 70 | 253 | 4.3 | 7.0 | 0.00 | 0.00 | 0.00 | 17 | 1019.3 |
| 20260505083704 | 70 | 214 | 4.3 | 7.0 | 0.00 | 0.00 | 0.00 | 17 | 1019.0 |
| 20260505083204 | 70 | 261 | 4.3 | 7.8 | 0.00 | 0.00 | 0.00 | 17 | 1019.0 |
| 20260505082705 | 71 | 238 | 2.6 | 6.1 | 0.00 | 0.00 | 0.00 | 17 | 1019.0 |
| 20260505082204 | 70 | 268 | 4.3 | 6.1 | 0.00 | 0.00 | 0.00 | 17 | 1019.0 |
| 20260505081704 | 70 | 267 | 4.3 | 7.0 | 0.00 | 0.00 | 0.00 | 17 | 1019.0 |
| 20260505081204 | 70 | 279 | 6.1 | 7.0 | 0.00 | 0.00 | 0.00 | 17 | 1019.0 |
| 20260505080704 | 71 | 255 | 5.2 | 8.7 | 0.00 | 0.00 | 0.00 | 17 | 1019.0 |
| 20260505080204 | 71 | 265 | 3.5 | 7.8 | 0.00 | 0.00 | 0.00 | 17 | 1019.0 |
| 20260505075703 | 71 | 274 | 3.5 | 6.1 | 0.00 | 0.00 | 0.00 | 17 | 1018.3 |
| 20260505075205 | 71 | 273 | 6.1 | 8.7 | 0.00 | 0.00 | 0.00 | 17 | 1018.0 |
| 20260505074704 | 71 | 267 | 4.3 | 7.8 | 0.00 | 0.00 | 0.00 | 17 | 1018.0 |
| 20260505074204 | 71 | 273 | 5.2 | 8.7 | 0.00 | 0.00 | 0.00 | 17 | 1018.8 |
| 20260505073704 | 71 | 266 | 4.3 | 7.8 | 0.00 | 0.00 | 0.00 | 17 | 1019.0 |
| 20260505073204 | 71 | 254 | 5.2 | 8.7 | 0.00 | 0.00 | 0.00 | 17 | 1019.0 |
| 20260505072705 | 71 | 255 | 5.2 | 11.3 | 0.00 | 0.00 | 0.00 | 17 | 1018.3 |
| 20260505072204 | 71 | 240 | 6.1 | 10.4 | 0.00 | 0.00 | 0.00 | 17 | 1018.0 |
| 20260505071705 | 71 | 247 | 6.1 | 13.0 | 0.00 | 0.00 | 0.00 | 17 | 1018.0 |
| 20260505071204 | 72 | 263 | 5.2 | 11.3 | 0.00 | 0.00 | 0.00 | 16 | 1018.0 |
| 20260505070704 | 73 | 220 | 4.3 | 7.0 | 0.00 | 0.00 | 0.00 | 16 | 1018.0 |
| 20260505070204 | 73 | 276 | 1.7 | 7.8 | 0.00 | 0.00 | 0.00 | 16 | 1018.0 |
| 20260505065704 | 73 | 235 | 2.6 | 10.4 | 0.00 | 0.00 | 0.00 | 19 | 1018.0 |
| 20260505065204 | 73 | 265 | 3.5 | 8.7 | 0.00 | 0.00 | 0.00 | 19 | 1018.0 |
| 20260505064204 | 73 | 270 | 2.6 | 5.2 | 0.00 | 0.00 | 0.00 | 18 | 1017.3 |
| 20260505063704 | 73 | 278 | 2.6 | 10.4 | 0.00 | 0.00 | 0.00 | 19 | 1017.0 |
| 20260505063203 | 72 | 268 | 3.5 | 10.4 | 0.00 | 0.00 | 0.00 | 19 | 1017.0 |
| 20260505062704 | 72 | 264 | 5.2 | 8.7 | 0.00 | 0.00 | 0.00 | 19 | 1017.0 |
| 20260505061704 | 71 | 273 | 3.5 | 7.0 | 0.00 | 0.00 | 0.00 | 19 | 1017.0 |
| 20260505061204 | 70 | 262 | 7.0 | 11.3 | 0.00 | 0.00 | 0.00 | 17 | 1016.3 |
| 20260505060705 | 71 | 270 | 7.0 | 10.4 | 0.00 | 0.00 | 0.00 | 14 | 1016.0 |
| 20260505060204 | 72 | 260 | 4.3 | 11.3 | 0.00 | 0.00 | 0.00 | 14 | 1016.0 |
| 20260505055703 | 72 | 286 | 7.0 | 8.7 | 0.00 | 0.00 | 0.00 | 14 | 1016.8 |
| 20260505055204 | 72 | 237 | 5.2 | 8.7 | 0.00 | 0.00 | 0.00 | 14 | 1017.0 |
| 20260505054204 | 72 | 283 | 5.2 | 7.8 | 0.00 | 0.00 | 0.00 | 14 | 1017.0 |
| 20260505053704 | 71 | 226 | 6.1 | 10.4 | 0.00 | 0.00 | 0.00 | 14 | 1017.0 |
| 20260505053205 | 73 | 257 | 2.6 | 10.4 | 0.00 | 0.00 | 0.00 | 14 | 1017.0 |
| 20260505052204 | 72 | 229 | 6.1 | 11.3 | 0.00 | 0.00 | 0.00 | 14 | 1016.0 |
| 20260505051704 | 73 | 264 | 5.2 | 12.2 | 0.00 | 0.00 | 0.00 | 14 | 1016.0 |
| 20260505051204 | 72 | 185 | 7.0 | 13.0 | 0.00 | 0.00 | 0.00 | 14 | 1016.0 |
| 20260505050705 | 73 | 253 | 6.1 | 8.7 | 0.00 | 0.00 | 0.00 | 14 | 1016.0 |
| 20260505050205 | 73 | 219 | 3.5 | 7.0 | 0.00 | 0.00 | 0.00 | 13 | 1016.0 |
| 20260505041704 | 73 | 266 | 4.3 | 7.8 | 0.00 | 0.00 | 0.00 | 13 | 1016.0 |
| 20260505041204 | 74 | 247 | 2.6 | 7.0 | 0.00 | 0.00 | 0.00 | 13 | 1016.0 |
| 20260505040703 | 74 | 252 | 2.6 | 7.0 | 0.00 | 0.00 | 0.00 | 13 | 1016.0 |
| 20260505040204 | 73 | 242 | 3.5 | 7.0 | 0.00 | 0.00 | 0.00 | 13 | 1016.0 |
| 20260505035704 | 73 | 224 | 2.6 | 11.3 | 0.00 | 0.00 | 0.00 | 13 | 1016.0 |
| 20260505035204 | 73 | 154 | 2.6 | 5.2 | 0.00 | 0.00 | 0.00 | 13 | 1016.0 |
| 20260505034704 | 72 | 234 | 5.2 | 8.7 | 0.00 | 0.00 | 0.00 | 14 | 1016.0 |
| 20260505034204 | 72 | 290 | 6.1 | 7.0 | 0.00 | 0.00 | 0.00 | 14 | 1016.8 |
| 20260505033703 | 73 | 252 | 4.3 | 7.0 | 0.00 | 0.00 | 0.00 | 14 | 1017.0 |
| 20260505033204 | 73 | 258 | 5.2 | 7.8 | 0.00 | 0.00 | 0.00 | 14 | 1017.0 |
| 20260505032704 | 72 | 270 | 6.1 | 7.0 | 0.00 | 0.00 | 0.00 | 14 | 1017.0 |
| 20260505032204 | 74 | 291 | 3.5 | 7.8 | 0.00 | 0.00 | 0.00 | 13 | 1017.0 |
| 20260505031705 | 73 | 270 | 5.2 | 7.0 | 0.00 | 0.00 | 0.00 | 14 | 1017.0 |
| 20260505031204 | 73 | 259 | 3.5 | 7.0 | 0.00 | 0.00 | 0.00 | 13 | 1017.0 |
| 20260505030203 | 75 | 231 | 2.6 | 4.3 | 0.00 | 0.00 | 0.00 | 13 | 1017.0 |
| 20260505025704 | 74 | 225 | 5.2 | 4.3 | 0.00 | 0.00 | 0.00 | 13 | 1017.0 |
| 20260505025204 | 73 | 270 | 4.3 | 6.1 | 0.00 | 0.00 | 0.00 | 13 | 1017.0 |
| 20260505024205 | 73 | 270 | 4.3 | 4.3 | 0.00 | 0.00 | 0.00 | 14 | 1017.0 |
| 20260505023704 | 73 | 248 | 4.3 | 4.3 | 0.00 | 0.00 | 0.00 | 14 | 1017.0 |
| 20260505023204 | 73 | 248 | 4.3 | 4.3 | 0.00 | 0.00 | 0.00 | 13 | 1017.0 |
| 20260505022204 | 74 | 248 | 4.3 | 4.3 | 0.00 | 0.00 | 0.00 | 13 | 1016.0 |
| 20260505020204 | 75 | 248 | 2.6 | 4.3 | 0.00 | 0.00 | 0.00 | 13 | 1017.0 |
| 20260505015704 | 76 | 206 | 2.6 | 5.2 | 0.00 | 0.00 | 0.00 | 13 | 1017.0 |
| 20260505015204 | 76 | 225 | 1.7 | 4.3 | 0.00 | 0.00 | 0.00 | 13 | 1017.0 |
| 20260505014704 | 75 | 255 | 1.7 | 5.2 | 0.00 | 0.00 | 0.00 | 13 | 1017.0 |
| 20260505014204 | 75 | 232 | 1.7 | 5.2 | 0.00 | 0.00 | 0.00 | 13 | 1017.0 |
| 20260505013704 | 75 | 259 | 3.5 | 7.8 | 0.00 | 0.00 | 0.00 | 13 | 1017.0 |
| 20260505012205 | 76 | 197 | 1.7 | 4.3 | 0.00 | 0.00 | 0.00 | 13 | 1017.0 |
| 20260505011704 | 76 | 202 | 0.9 | 1.7 | 0.00 | 0.00 | 0.00 | 13 | 1017.0 |
| 20260505011204 | 76 | 248 | 0.0 | 1.7 | 0.00 | 0.00 | 0.00 | 13 | 1017.0 |
| 20260505010704 | 75 | 225 | 1.7 | 4.3 | 0.00 | 0.00 | 0.00 | 13 | 1017.0 |
| 20260505010204 | 75 | 225 | 0.9 | 1.7 | 0.00 | 0.00 | 0.00 | 13 | 1017.0 |
| 20260505005704 | 75 | 180 | 0.9 | 2.6 | 0.00 | 0.00 | 0.00 | 13 | 1017.0 |
| 20260505005204 | 74 | 248 | 2.6 | 4.3 | 0.00 | 0.00 | 0.00 | 13 | 1017.0 |
| 20260505004704 | 74 | 145 | 0.9 | 1.7 | 0.00 | 0.00 | 0.00 | 13 | 1017.0 |
| 20260505004204 | 73 | 242 | 0.9 | 2.6 | 0.00 | 0.00 | 0.00 | 14 | 1017.0 |
| 20260505003705 | 73 | 13 | 1.7 | 4.3 | 0.00 | 0.00 | 0.00 | 14 | 1017.0 |
| 20260505003204 | 73 | 228 | 1.7 | 4.3 | 0.00 | 0.00 | 0.00 | 14 | 1017.0 |
| 20260505001204 | 74 | 230 | 1.7 | 5.2 | 0.00 | 0.00 | 0.00 | 13 | 1017.0 |
| 20260505000704 | 74 | 112 | 0.9 | 2.6 | 0.00 | 0.00 | 0.00 | 13 | 1017.0 |
| 20260505000205 | 73 | 176 | 1.7 | 2.6 | 0.00 | 0.00 | 0.00 | 13 | 1017.0 |
| 20260504235703 | 74 | 123 | 0.0 | 2.6 | 0.00 | 0.00 | 0.00 | 13 | 1017.0 |
| 20260504235204 | 73 | 101 | 2.6 | 4.3 | 0.00 | 0.00 | 0.00 | 14 | 1017.0 |
| 20260504234704 | 73 | 135 | 0.0 | 0.0 | 0.00 | 0.00 | 0.00 | 14 | 1017.0 |
| 20260504234204 | 73 | 158 | 0.0 | 1.7 | 0.00 | 0.00 | 0.00 | 14 | 1017.0 |
| 20260504233704 | 72 | 296 | 0.0 | 1.7 | 0.00 | 0.00 | 0.00 | 14 | 1017.0 |
| 20260504233204 | 71 | 178 | 0.0 | 2.6 | 0.00 | 0.00 | 0.00 | 14 | 1017.0 |
| 20260504232704 | 71 | 125 | 0.9 | 2.6 | 0.00 | 0.00 | 0.00 | 14 | 1017.8 |
| 20260504230204 | 67 | 274 | 1.7 | 4.3 | 0.00 | 0.00 | 0.00 | 17 | 1017.0 |
| 20260504225704 | 67 | 212 | 0.9 | 1.7 | 0.00 | 0.00 | 0.00 | 17 | 1017.0 |
| 20260504225205 | 67 | 173 | 1.7 | 2.6 | 0.00 | 0.00 | 0.00 | 17 | 1017.0 |
| 20260504224204 | 68 | 202 | 0.0 | 0.9 | 0.00 | 0.00 | 0.00 | 22 | 1017.0 |
| 20260504223704 | 69 | 270 | 0.0 | 0.9 | 0.00 | 0.00 | 0.00 | 23 | 1017.0 |
| 20260504223204 | 70 | 248 | 0.0 | 0.9 | 0.00 | 0.00 | 0.00 | 24 | 1017.0 |
| 20260504222704 | 69 | 95 | 1.7 | 2.6 | 0.00 | 0.00 | 0.00 | 24 | 1017.0 |
| 20260504222204 | 69 | 63 | 0.0 | 0.0 | 0.00 | 0.00 | 0.00 | 29 | 1017.0 |
| 20260504221705 | 69 | 321 | 0.0 | 0.0 | 0.00 | 0.00 | 0.00 | 34 | 1017.0 |
| 20260504221205 | 67 | 315 | 0.0 | 0.0 | 0.00 | 0.00 | 0.00 | 35 | 1016.3 |
| 20260504220704 | 66 | 293 | 0.9 | 1.7 | 0.00 | 0.00 | 0.00 | 39 | 1016.0 |
| 20260504220204 | 65 | 45 | 0.9 | 1.7 | 0.00 | 0.00 | 0.00 | 45 | 1016.0 |
| 20260504215705 | 63 | 0 | 0.9 | 1.7 | 0.00 | 0.00 | 0.00 | 49 | 1016.8 |
| 20260504214704 | 62 | 45 | 0.9 | 4.3 | 0.00 | 0.00 | 0.00 | 57 | 1017.0 |
| 20260504214204 | 61 | 22 | 0.9 | 1.7 | 0.00 | 0.00 | 0.00 | 58 | 1017.0 |
| 20260504213704 | 59 | 34 | 0.9 | 2.6 | 0.00 | 0.00 | 0.00 | 58 | 1017.0 |
| 20260504213204 | 59 | 68 | 1.7 | 2.6 | 0.00 | 0.00 | 0.00 | 58 | 1017.0 |
| 20260504212704 | 59 | 43 | 0.0 | 1.7 | 0.00 | 0.00 | 0.00 | 59 | 1017.0 |
| 20260504212205 | 59 | 45 | 1.7 | 2.6 | 0.00 | 0.00 | 0.00 | 59 | 1017.0 |
| 20260504211704 | 59 | 55 | 0.0 | 0.9 | 0.00 | 0.00 | 0.00 | 60 | 1017.0 |
| 20260504211204 | 58 | 68 | 0.0 | 0.9 | 0.00 | 0.00 | 0.00 | 60 | 1016.3 |
| 20260504210705 | 58 | 68 | 0.0 | 0.0 | 0.00 | 0.00 | 0.00 | 61 | 1016.0 |
| 20260504210204 | 58 | 66 | 0.0 | 0.0 | 0.00 | 0.00 | 0.00 | 61 | 1016.0 |
| 20260504205704 | 58 | 90 | 0.0 | 0.0 | 0.00 | 0.00 | 0.00 | 61 | 1015.3 |
| 20260504204703 | 58 | 55 | 0.0 | 0.9 | 0.00 | 0.00 | 0.00 | 61 | 1015.0 |
| 20260504204203 | 57 | 358 | 0.0 | 0.9 | 0.00 | 0.00 | 0.00 | 61 | 1014.2 |
| 20260504203703 | 57 | 41 | 0.0 | 1.7 | 0.00 | 0.00 | 0.00 | 61 | 1014.0 |
| 20260504203205 | 57 | 61 | 0.9 | 2.6 | 0.00 | 0.00 | 0.00 | 62 | 1014.0 |
| 20260504202704 | 57 | 56 | 1.7 | 2.6 | 0.00 | 0.00 | 0.00 | 60 | 1014.8 |
| 20260504202204 | 57 | 45 | 1.7 | 2.6 | 0.00 | 0.00 | 0.00 | 59 | 1015.0 |
| 20260504201704 | 57 | 68 | 1.7 | 1.7 | 0.00 | 0.00 | 0.00 | 57 | 1015.0 |
| 20260504201204 | 57 | 63 | 1.7 | 2.6 | 0.00 | 0.00 | 0.00 | 53 | 1014.3 |
| 20260504200704 | 57 | 64 | 0.9 | 1.7 | 0.00 | 0.00 | 0.00 | 50 | 1014.0 |
| 20260504200204 | 57 | 68 | 0.0 | 0.9 | 0.00 | 0.00 | 0.00 | 49 | 1014.0 |
| 20260504195705 | 57 | 47 | 0.9 | 1.7 | 0.00 | 0.00 | 0.00 | 49 | 1014.0 |
| 20260504195204 | 57 | 81 | 0.0 | 0.0 | 0.00 | 0.00 | 0.00 | 48 | 1014.0 |
| 20260504194704 | 57 | 45 | 0.0 | 0.9 | 0.00 | 0.00 | 0.00 | 47 | 1014.0 |
| 20260504194203 | 57 | 68 | 0.9 | 0.9 | 0.00 | 0.00 | 0.00 | 47 | 1013.3 |
| 20260504193703 | 57 | 68 | 0.9 | 0.9 | 0.00 | 0.00 | 0.00 | 46 | 1013.0 |
| 20260504192704 | 57 | 90 | 0.0 | 0.0 | 0.00 | 0.00 | 0.00 | 45 | 1012.3 |
| 20260504192205 | 58 | 68 | 0.9 | 2.6 | 0.00 | 0.00 | 0.00 | 46 | 1012.0 |
| 20260504191704 | 58 | 90 | 1.7 | 2.6 | 0.00 | 0.00 | 0.00 | 46 | 1012.0 |
| 20260504190704 | 57 | 68 | 1.7 | 2.6 | 0.00 | 0.00 | 0.00 | 48 | 1013.0 |
| 20260504185703 | 57 | 68 | 0.9 | 4.3 | 0.00 | 0.00 | 0.00 | 49 | 1012.3 |
| 20260504185204 | 57 | 91 | 1.7 | 4.3 | 0.00 | 0.00 | 0.00 | 50 | 1012.0 |
| 20260504184204 | 57 | 47 | 1.7 | 2.6 | 0.00 | 0.00 | 0.00 | 50 | 1011.3 |
| 20260504183704 | 57 | 45 | 0.0 | 2.6 | 0.00 | 0.00 | 0.00 | 49 | 1011.0 |
| 20260504183204 | 58 | 68 | 0.9 | 4.3 | 0.00 | 0.00 | 0.00 | 49 | 1011.0 |
| 20260504182704 | 58 | 90 | 2.6 | 5.2 | 0.00 | 0.00 | 0.00 | 50 | 1011.0 |
| 20260504182204 | 58 | 65 | 2.6 | 5.2 | 0.00 | 0.00 | 0.00 | 50 | 1011.0 |
| 20260504181704 | 58 | 68 | 3.5 | 2.6 | 0.00 | 0.00 | 0.00 | 50 | 1011.0 |
| 20260504181204 | 58 | 66 | 1.7 | 4.3 | 0.00 | 0.00 | 0.00 | 51 | 1011.0 |